Flag for Switzerland Weather past 2 weeks in Montreux, Vaud, Switzerland

Now
80 °F

Passing clouds.


Feels Like: 81 °F
Forecast: 54 / 62 °F
Wind: 8 mph from North

Location: Aigle

Current Time: Aug 31, 2015 at 3:27:15 PM

Latest Report: Aug 31, 2015 at 2:00 PM


Visibility: 25 mi

Pressure: 29.96 "Hg

Humidity: 51%

Dew point: 60 °F

Location of MontreuxLocation

Historic Weather in Montreux — Graph

°F

Montreux temperature yesterday

Maximum temperature yesterday: 82 °F (at 6:00 PM)
Minimum temperature yesterday: 61 °F (at 7:00 AM)
Average temperature yesterday: 72 °F

Past Weeks' High & Low Weather Summary

 TemperatureHumidityPressure
High83 °F (Aug 28, 5:00 PM)98% (Aug 17, 12:00 AM)30.24 "Hg (Aug 17, 12:00 AM)
Low51 °F (Aug 20, 7:00 AM)37% (Aug 20, 6:00 PM)29.70 "Hg (Aug 24, 5:00 AM)
Average65 °F77%30.02 "Hg
* Reported Aug 16 1:00 PM — Aug 31 1:00 PM, Montreux, Weather by CustomWeather, © 2015

Note: Actual official high and low records may vary slightly from our data, if they occured in-between our weather recording intervals... More about our weather records

Advertising

Montreux weather history for previous 24 hours

 ConditionsComfort  
Time TempWeatherWind HumidityBarometerVisibility
1:00 PM
Mon, Aug 31
79 °FWarm.10 mph58%29.98 "HgN/A
12:00 PM81 °FWarm.6 mph42%29.98 "HgN/A
11:00 AM78 °FSunny.7 mph37%30.00 "Hg19 mi
10:00 AM75 °FMild.8 mph39%30.01 "HgN/A
9:00 AM71 °FMild.6 mph50%30.03 "HgN/A
8:00 AM68 °FPassing clouds.5 mph54%30.03 "Hg22 mi
7:00 AM61 °FCool.3 mph86%30.05 "HgN/A
6:00 AM61 °FCool.2 mph88%30.05 "HgN/A
5:00 AM61 °FPassing clouds.1 mph91%30.06 "Hg22 mi
4:00 AM64 °FMild.3 mph90%30.05 "HgN/A
3:00 AM63 °FMild.3 mph95%30.06 "HgN/A
2:00 AM66 °FMild.6 mph90%30.05 "HgN/A
1:00 AM66 °FMild.3 mph92%30.06 "HgN/A
12:00 AM67 °FMild.No wind92%30.07 "HgN/A
10:00 PM
Sun, Aug 30
70 °FMild.1 mph90%30.07 "HgN/A
9:00 PM72 °FMild.3 mph78%30.05 "HgN/A
8:00 PM74 °FPassing clouds.2 mph83%30.03 "Hg19 mi
7:00 PM80 °FWarm.2 mph60%30.01 "HgN/A
6:00 PM82 °FWarm.3 mph53%30.01 "HgN/A
5:00 PM82 °FPassing clouds.6 mph52%30.01 "Hg16 mi
4:00 PM82 °FWarm.6 mph56%30.01 "HgN/A
3:00 PM82 °FWarm.7 mph52%30.03 "HgN/A
Weather by CustomWeather, © 2015

See weather overviewHow to use our weather pages